Flag for Germany Weather past 2 weeks in Neustadt am Rübenberge, Lower Saxony, Germany

Now
59 °F

Thundershowers. Scattered clouds.


Feels Like: 58 °F
Forecast: 48 / 69 °F
Wind: 7 mph from Northeast

Location: Wunstorf Airport


UV Index: 3 (Moderate)

Visibility: N/A


Pressure: 30.12 "Hg

Humidity: 77%

Dew point: 52 °F

Location of Neustadt am RübenbergeLocation

Historic Weather in Neustadt am Rübenberge

°F

Neustadt am Rübenberge temperature yesterday

Maximum temperature yesterday: 63 °F (at 4:20 PM)
Minimum temperature yesterday: 45 °F (at 3:20 AM)
Average temperature yesterday: 53 °F

Past Weeks' High & Low Weather Summary

 TemperatureHumidityPressure
High68 °F (Apr 23, 3:20 PM)100% (Apr 9, 11:20 PM)30.48 "Hg (Apr 9, 11:20 PM)
Low30 °F (Apr 16, 5:20 AM)36% (Apr 17, 2:20 PM)29.68 "Hg (Apr 21, 4:20 PM)
Average48 °F78%30.03 "Hg
* Reported Apr 8 9:20 PM — Apr 23 9:20 PM, Neustadt am Rübenberge, Weather by CustomWeather, © 2014

Note: Actual official high and low records may vary slightly from our data, if they occured in-between our weather recording intervals... More about our weather records

Advertising

Historic Weather Conditions — Data for Previous 24 hours

 ConditionsComfort  
Time TempWeatherWind HumidityBarometerVisibility
9:20 PM
Apr 23
59 °FThundershowers. Scattered clouds.7 mph77%30.12 "HgN/A
8:20 PM61 °FPassing clouds.7 mph72%30.09 "HgN/A
7:20 PM64 °FPartly sunny.9 mph64%30.09 "HgN/A
6:20 PM68 °FPartly sunny.1 mph40%30.09 "HgN/A
5:20 PM66 °FPartly sunny.3 mph49%30.09 "HgN/A
4:20 PM68 °FPartly sunny.3 mph46%30.09 "HgN/A
3:20 PM68 °FPartly sunny.3 mph46%30.09 "HgN/A
2:20 PM66 °FPartly sunny.5 mph49%30.09 "HgN/A
1:20 PM64 °FPartly sunny.5 mph52%30.12 "HgN/A
12:20 PM64 °FPartly sunny.5 mph60%30.12 "Hg5 mi
11:20 AM61 °FScattered clouds.2 mph68%30.12 "Hg5 mi
10:20 AM57 °FScattered clouds.2 mph82%30.12 "Hg3 mi
9:20 AM54 °FFog.3 mph88%30.09 "Hg2 mi
8:59 AM54 °FFog.3 mph88%30.09 "Hg2 mi
8:20 AM50 °FFog.3 mph94%30.09 "Hg2 mi
7:20 AM45 °FFog.3 mph93%30.09 "Hg1 mi
6:20 AM43 °FFog.No wind100%30.07 "Hg1 mi
5:20 AM45 °FFog.No wind93%30.04 "Hg2 mi
4:20 AM46 °FCool.No wind93%30.04 "Hg1 mi
3:20 AM48 °FCool.2 mph94%30.04 "Hg2 mi
2:20 AM48 °FCool.3 mph94%30.04 "Hg2 mi
1:20 AM50 °FCool.3 mph88%30.01 "Hg2 mi
12:20 AM54 °FCool.5 mph82%30.01 "Hg2 mi
11:20 PM
Apr 22
52 °FCool.2 mph88%29.98 "Hg2 mi
10:20 PM57 °FCool.5 mph77%29.98 "Hg2 mi
Weather by CustomWeather, © 2014

See weather overview